Regional Weather Roundup
Issued by NWS

Home | Current Version | Previous Version | Graphics & Text | Print | Product List | Glossary On
Versions: 1 2 3 4 5 6 7 8 9 10 11 12 13 14 15 16 17 18 19 20 21 22 23 24 25 26 27 28 29 30 31 32 33 34 35 36 37 38 39 40 41 42 43 44 45 46 47 48 49 50
000
ASUS43 KMPX 291610
RWRMN
WEATHER ROUNDUP FOR MINNESOTA
NATIONAL WEATHER SERVICE TWIN CITIES/CHANHASSEN MN
1100 AM CDT FRI AUG 29 2014


NOTE: "FAIR" INDICATES FEW OR NO CLOUDS BELOW 12,000 FEET WITH NO
SIGNIFICANT WEATHER AND/OR OBSTRUCTIONS TO VISIBILITY. N/A MEANS
CURRENT SKY AND/OR WEATHER CONDITIONS ARE NOT AVAILABLE.

MNZ060>063-068>070-291700-
   Twin Cities Metro

CITY           SKY/WX    TMP DP  RH WIND       PRES   REMARKS
TWIN CITIES    CLOUDY    73  68  84 S6        29.80S
ST PAUL        CLOUDY    74  69  85 S8        29.80F
CRYSTAL        CLOUDY    72  68  87 S9        29.77F
BLAINE         TSTM      73  72  94 S12       29.80R
LAKEVILLE      PTSUNNY   73  66  78 S8        29.81S
EDEN PRAIRIE   LGT RAIN  72  68  87 S6        29.79S
SOUTH ST PAUL  PTSUNNY   74  69  83 S6        29.80S THUNDER
LAKE ELMO      CLOUDY    73  70  88 S10       29.82S THUNDER
$$
MNZ001>005-007-008-013>017-022>024-027-028-291700-
   Northwest Minnesota

CITY           SKY/WX    TMP DP  RH WIND       PRES   REMARKS
BEMIDJI        CLOUDY    65  64  95 S3        29.80S FOG
HALLOCK        CLOUDY    66  64  94 S5        29.76S
ROSEAU         PTSUNNY   70  63  78 S5        29.78R
WARROAD        CLOUDY    68  64  88 S7        29.77F
THIEF RVR FALL CLOUDY    66  64  94 SE5       29.78R
CROOKSTON      CLOUDY    68  64  88 SW6       29.78R
FOSSTON        CLOUDY    66  64  94 CALM      29.79F
DETROIT LAKES  CLOUDY    66  64  94 S3        29.81S FOG
MOORHEAD       CLOUDY    70  68  94 CALM      29.78S
PARK RAPIDS    CLOUDY    65  64  97 SW3       29.80R
MAHNOMEN       DRIZZLE   66  65  97 CALM      29.78S
$$
MNZ006-009>011-018-025>026-291700-
   North Central Minnesota

CITY           SKY/WX    TMP DP  RH WIND       PRES   REMARKS
BAUDETTE       CLOUDY    65  64  97 VRB5      29.78F FOG
FLAG ISLAND    CLOUDY    66  63  88 CALM      29.75F
INTL FALLS     CLOUDY    66  61  84 SE8       29.80F
WASKISH        CLOUDY    64  63  94 CALM      29.80R
BIG FORK       CLOUDY    63  61  94 SE3       29.82R
LONGVILLE      CLOUDY    64  63  94 CALM      29.79S FOG
GRAND RAPIDS   CLOUDY    63  59  88 E3        29.81S
CRANE LAKE     DRIZZLE   61  61 100 CALM      29.84R
ORR            CLOUDY    63  61  94 CALM      29.80R
COOK           MIX PCPN  63  61  94 CALM      29.82R
WALKER         CLOUDY    64  63  94 CALM      29.79S
$$
MNZ012-019>021-037-291700-
   Northeast Minnesota

CITY           SKY/WX    TMP DP  RH WIND       PRES   REMARKS
DULUTH         LGT RAIN  61  59  93 SE6       29.80S FOG
ELY            HVY RAIN  59  57  94 E5        29.83S
HIBBING        LGT RAIN  63  60  90 SE5       29.82R
EVELETH        CLOUDY    59  59 100 E5        29.83S FOG
DULUTH HARBOR  DRIZZLE   63  61  94 E6        29.80F
TWO HARBORS    LGT RAIN  61  55  82 E6        29.80S
SILVER BAY     RAIN      57  57 100 E3        29.81S
GRAND MARAIS     N/A     61  58  90 NE8       29.84F
G MARAIS ARPRT DRIZZLE   55  54  94 E6        29.87F
$$
MNZ029>031-032-039>041-046>048-054>057-064-291700-
   West Central Minnesota

CITY           SKY/WX    TMP DP  RH WIND       PRES   REMARKS
FERGUS FALLS   LGT RAIN  66  64  94 SW3       29.79S
WHEATON        CLOUDY    64  64 100 CALM      29.81R FOG
MORRIS         CLOUDY    68  66  94 CALM      29.79S
ALEXANDRIA     CLOUDY    68  65  90 W3        29.81R
ELBOW LAKE     CLOUDY    67  65  94 CALM      29.79R
WADENA         CLOUDY    64  64 100 CALM      29.78F
GLENWOOD       LGT RAIN  66  66 100 CALM      29.80S
APPLETON       CLOUDY    68  66  94 CALM      29.79R
BENSON         CLOUDY    68  66  94 N3        29.79S
ORTONVILLE     CLOUDY    66  64  94 CALM      29.79S
MADISON        CLOUDY    70  68  94 NW3       29.79R
WILLMAR        CLOUDY    70  66  88 W5        29.79S
$$
MNZ033>034-036-042>043-049>051-058-059-291700-
   Central Minnesota

CITY           SKY/WX    TMP DP  RH WIND       PRES   REMARKS
ST CLOUD       LGT RAIN  70  67  90 SE3       29.77F
SAUK CENTRE    LGT RAIN  66  65  97 CALM      29.80R
PAYNESVILLE    CLOUDY    67  66  98 S5        29.79R
AITKIN         MIX PCPN  66  61  82 CALM      29.78S
PINE RIVER     RAIN      64  64 100 CALM      29.83S
BRAINERD       HVY RAIN  64  63  96 N3        29.79F FOG
STAPLES        LGT RAIN  64  64 100 CALM      29.78F
LONG PRAIRIE   LGT RAIN  64  64 100 CALM      29.80R
LITTLE FALLS   LGT RAIN  64  63  94 CALM      29.79S
LITCHFIELD     PTSUNNY   72  72 100 S6        29.77F
BUFFALO        CLOUDY    68  64  88 W5        29.79F
MAPLE LAKE     RAIN      68  67  96 SE5       29.77F
$$
MNZ037-044-045-052-053-291700-
   East Central Minnesota

CITY           SKY/WX    TMP DP  RH WIND       PRES   REMARKS
PRINCETON      CLOUDY    70  68  94 S2        29.78F
MORA           HVY RAIN  63  63 100 E5        29.80S
CAMBRIDGE      TSTM      72  63  73 S10       29.77F
RUSH CITY      CLOUDY    67  66  96 CALM      29.80S
MOOSE LAKE     TSTM      63  63 100 CALM      29.77F
HINCKLEY       TSTM      64  64 100 E5        29.81R
CLOQUET        HVY RAIN  61  61 100 CALM      29.81S
MCGREGOR       CLOUDY    63  61  94 CALM      29.79F
$$
MNZ071>073-080-081-089-090-097-098-291700-
   Southwest Minnesota

CITY           SKY/WX    TMP DP  RH WIND       PRES   REMARKS
MONTEVIDEO     TSTM      66  66 100 N5        29.80R
GRANITE FALLS  CLOUDY    70  69  99 W6        29.80S THUNDER FOG
CANBY          PTSUNNY   67  67  98 NW6       29.80S
MARSHALL       CLOUDY    70  66  88 N5        29.78S
REDWOOD FALLS  CLOUDY    71  69  93 S9        29.78S
OLIVIA         CLOUDY    72  68  88 S6        29.77S
PIPESTONE      CLOUDY    70  68  94 S7        29.81S FOG
WINDOM         CLOUDY    73  66  78 S9        29.81S
WORTHINGTON    CLOUDY    72  68  88 S10       29.83R
JACKSON        CLOUDY    72  66  83 S9        29.82F
TRACY          CLOUDY    76  71  83 SW10G16   29.79F
SLAYTON        CLOUDY    73  69  87 CALM      29.82S
$$
MNZ065>067-074>077-082>085-091>093-291700-
   South Central Minnesota

CITY           SKY/WX    TMP DP  RH WIND       PRES   REMARKS
MANKATO        CLOUDY    75  64  69 S10       29.81S
NEW ULM        PTSUNNY   73  72  94 SW9       29.79F
ST JAMES       CLOUDY    79  68  69 S10       29.81S
FAIRMONT       CLOUDY    70  64  83 S12       29.81S
GLENCOE        CLOUDY    72  67  85 S7        29.78F
FARIBAULT      PTSUNNY   79  66  65 S5        29.82S
OWATONNA       PTSUNNY   75  68  78 S6        29.82F
WASECA         CLOUDY    73  63  68 S8        29.83F
ALBERT LEA     PTSUNNY   75  70  83 S5        29.83R
$$
MNZ078>079-086>088-094>096-291700-
   Southeast Minnesota

CITY           SKY/WX    TMP DP  RH WIND       PRES   REMARKS
ROCHESTER      MOSUNNY   77  68  73 S9        29.85S
RED WING       PTSUNNY   75  70  83 SE6       29.80F
STANTON        PTSUNNY   76  67  75 S7        29.80F
DODGE CENTER   PTSUNNY   75  68  78 S8        29.84S
WINONA         PTSUNNY   77  70  78 CALM      29.84S
AUSTIN         MOSUNNY   77  68  73 S14       29.82F
PRESTON        SUNNY     76  72  88 CALM      29.86S
$$
ABBREVIATIONS USED IN REMARKS
   TC - TEMPERATURES IN CELSIUS
  WCI - WIND CHILL INDEX
   HX - HEAT INDEX
  VSB - VISIBILITY
$$


USA.gov is the U.S. government's official web portal to all federal, state and local government web resources and services.